Location: Oberkirch
(48.5323°N, 8.0787°E)
Time: 23:46:33
(UTC+00:00)

CUBEBUG 2 - Visible Passes

Search period start: 14 March 2026 00:00
Search period end: 24 March 2026 00:00
Orbit: 548 x 629 km, 97.9° (Epoch: 14 March)

Date Brightness Start Highest point End Pass type
(mag) Time Alt. Az. Time Alt. Az. Time Alt. Az.
14 Mar ? 01:48:31 10° NNE 01:49:27 16° NNE 01:49:27 16° NNE visible
14 Mar ? 03:25:14 10° NNW 03:25:58 12° NNW 03:25:58 12° NNW visible
15 Mar ? 01:56:03 10° NNE 01:57:13 18° NNE 01:57:13 18° NNE visible
15 Mar ? 03:33:07 10° NNW 03:33:44 12° NW 03:33:44 12° NW visible
16 Mar ? 02:03:35 10° NNE 02:04:58 20° N 02:04:58 20° N visible
16 Mar ? 03:41:07 10° NW 03:41:29 11° NW 03:41:29 11° NW visible
17 Mar ? 02:11:08 10° N 02:12:43 22° N 02:12:43 22° N visible
18 Mar ? 02:18:40 10° N 02:20:26 24° N 02:20:26 24° N visible
19 Mar ? 00:51:31 10° NE 00:51:38 11° NE 00:51:38 11° NE visible
19 Mar ? 02:26:12 10° N 02:28:10 25° N 02:28:10 25° N visible
20 Mar ? 00:58:46 10° NE 00:59:21 13° NE 00:59:21 13° NE visible
20 Mar ? 02:33:46 10° N 02:35:52 25° NNW 02:35:52 25° NNW visible
21 Mar ? 01:06:04 10° NE 01:07:02 15° NE 01:07:02 15° NE visible
21 Mar ? 02:41:19 10° N 02:43:33 25° NNW 02:43:33 25° NNW visible
22 Mar ? 01:13:24 10° NNE 01:14:43 18° NE 01:14:43 18° NE visible
22 Mar ? 02:48:52 10° N 02:51:13 25° NNW 02:51:13 25° NNW visible
23 Mar ? 01:20:44 10° NNE 01:22:22 20° NE 01:22:22 20° NE visible
23 Mar ? 02:56:27 10° N 02:58:53 23° NW 02:58:53 23° NW visible
